| time (UTC) | temp F | wind direction | speed MPH | gust MPH | rain 1hr in | rain 24hr in | rain mn in | humidity % | barometer mb |
| 20260505204544 | 77 | 184 | 6.0 | 12.0 | 0.00 | 0.00 | 0.00 | 39 | 1011.9 |
| 20260505204027 | 77 | 112 | 5.0 | 12.0 | 0.00 | 0.00 | 0.00 | 39 | 1012.0 |
| 20260505203521 | 77 | 233 | 4.0 | 14.0 | 0.00 | 0.00 | 0.00 | 38 | 1012.1 |
| 20260505203049 | 77 | 126 | 6.0 | 14.0 | 0.00 | 0.00 | 0.00 | 38 | 1012.1 |
| 20260505202523 | 77 | 75 | 6.0 | 14.0 | 0.00 | 0.00 | 0.00 | 36 | 1012.3 |
| 20260505202023 | 78 | 189 | 4.0 | 16.0 | 0.00 | 0.00 | 0.00 | 37 | 1012.4 |
| 20260505201540 | 78 | 179 | 7.0 | 16.0 | 0.00 | 0.00 | 0.00 | 36 | 1012.5 |
| 20260505201023 | 78 | 256 | 5.0 | 15.0 | 0.00 | 0.00 | 0.00 | 35 | 1012.5 |
| 20260505200521 | 79 | 209 | 8.0 | 20.0 | 0.00 | 0.00 | 0.00 | 32 | 1012.5 |
| 20260505200041 | 80 | 182 | 4.0 | 20.0 | 0.00 | 0.00 | 0.00 | 40 | 1012.4 |
| 20260505195526 | 79 | 128 | 8.0 | 20.0 | 0.00 | 0.00 | 0.00 | 40 | 1012.3 |
| 20260505195021 | 79 | 132 | 5.0 | 14.0 | 0.00 | 0.00 | 0.00 | 42 | 1012.5 |
| 20260505194555 | 79 | 196 | 5.0 | 14.0 | 0.00 | 0.00 | 0.00 | 41 | 1012.6 |
| 20260505194022 | 79 | 189 | 6.0 | 14.0 | 0.00 | 0.00 | 0.00 | 41 | 1012.5 |
| 20260505193527 | 79 | 289 | 2.0 | 16.0 | 0.00 | 0.00 | 0.00 | 42 | 1012.7 |
| 20260505193103 | 79 | 132 | 7.0 | 16.0 | 0.00 | 0.00 | 0.00 | 41 | 1012.8 |
| 20260505192521 | 80 | 182 | 5.0 | 15.0 | 0.00 | 0.00 | 0.00 | 41 | 1012.9 |
| 20260505192021 | 80 | 142 | 5.0 | 13.0 | 0.00 | 0.00 | 0.00 | 40 | 1012.9 |
| 20260505191544 | 80 | 133 | 6.0 | 13.0 | 0.00 | 0.00 | 0.00 | 39 | 1012.9 |
| 20260505191024 | 80 | 183 | 5.0 | 15.0 | 0.00 | 0.00 | 0.00 | 40 | 1012.8 |
| 20260505190523 | 80 | 80 | 6.0 | 15.0 | 0.00 | 0.00 | 0.00 | 40 | 1012.8 |
| 20260505190043 | 80 | 120 | 6.0 | 16.0 | 0.00 | 0.00 | 0.00 | 40 | 1012.9 |
| 20260505185522 | 79 | 110 | 7.0 | 16.0 | 0.00 | 0.00 | 0.00 | 37 | 1012.8 |
| 20260505185025 | 79 | 175 | 7.0 | 16.0 | 0.00 | 0.00 | 0.00 | 38 | 1012.9 |
| 20260505184541 | 79 | 141 | 7.0 | 16.0 | 0.00 | 0.00 | 0.00 | 39 | 1013.1 |
| 20260505184024 | 78 | 236 | 5.0 | 17.0 | 0.00 | 0.00 | 0.00 | 37 | 1013.2 |
| 20260505183521 | 79 | 186 | 8.0 | 17.0 | 0.00 | 0.00 | 0.00 | 37 | 1013.5 |
| 20260505183044 | 78 | 171 | 7.0 | 16.0 | 0.00 | 0.00 | 0.00 | 39 | 1013.5 |
| 20260505182521 | 78 | 171 | 7.0 | 16.0 | 0.00 | 0.00 | 0.00 | 38 | 1013.6 |
| 20260505182023 | 79 | 165 | 5.0 | 17.0 | 0.00 | 0.00 | 0.00 | 38 | 1013.7 |
| 20260505181545 | 79 | 187 | 9.0 | 17.0 | 0.00 | 0.00 | 0.00 | 36 | 1013.8 |
| 20260505181022 | 79 | 75 | 5.0 | 16.0 | 0.00 | 0.00 | 0.00 | 40 | 1013.8 |
| 20260505180521 | 78 | 175 | 6.0 | 16.0 | 0.00 | 0.00 | 0.00 | 39 | 1013.8 |
| 20260505180045 | 78 | 133 | 8.0 | 18.0 | 0.00 | 0.00 | 0.00 | 40 | 1013.7 |
| 20260505175526 | 78 | 156 | 9.0 | 22.0 | 0.00 | 0.00 | 0.00 | 39 | 1013.7 |
| 20260505175024 | 78 | 100 | 10.0 | 23.0 | 0.00 | 0.00 | 0.00 | 39 | 1013.6 |
| 20260505174542 | 78 | 119 | 13.0 | 23.0 | 0.00 | 0.00 | 0.00 | 38 | 1013.6 |
| 20260505174023 | 78 | 112 | 13.0 | 21.0 | 0.00 | 0.00 | 0.00 | 40 | 1013.6 |
| 20260505173527 | 78 | 140 | 9.0 | 18.0 | 0.00 | 0.00 | 0.00 | 41 | 1013.7 |
| 20260505173041 | 77 | 112 | 8.0 | 19.0 | 0.00 | 0.00 | 0.00 | 42 | 1013.7 |
| 20260505172524 | 77 | 131 | 8.0 | 19.0 | 0.00 | 0.00 | 0.00 | 41 | 1013.8 |
| 20260505172024 | 77 | 85 | 11.0 | 17.0 | 0.00 | 0.00 | 0.00 | 41 | 1013.9 |
| 20260505171547 | 77 | 124 | 6.0 | 16.0 | 0.00 | 0.00 | 0.00 | 42 | 1014.1 |
| 20260505171024 | 77 | 69 | 8.0 | 14.0 | 0.00 | 0.00 | 0.00 | 41 | 1014.3 |
| 20260505170521 | 77 | 20 | 5.0 | 13.0 | 0.00 | 0.00 | 0.00 | 42 | 1014.6 |
| 20260505170039 | 77 | 229 | 5.0 | 16.0 | 0.00 | 0.00 | 0.00 | 41 | 1014.6 |
| 20260505165521 | 77 | 259 | 7.0 | 18.0 | 0.00 | 0.00 | 0.00 | 41 | 1014.4 |
| 20260505165022 | 77 | 169 | 9.0 | 18.0 | 0.00 | 0.00 | 0.00 | 41 | 1014.6 |
| 20260505164540 | 77 | 122 | 6.0 | 14.0 | 0.00 | 0.00 | 0.00 | 44 | 1014.5 |
| 20260505164021 | 77 | 171 | 3.0 | 16.0 | 0.00 | 0.00 | 0.00 | 46 | 1014.5 |
| 20260505163520 | 76 | 114 | 6.0 | 16.0 | 0.00 | 0.00 | 0.00 | 46 | 1014.6 |
| 20260505163043 | 76 | 178 | 4.0 | 16.0 | 0.00 | 0.00 | 0.00 | 47 | 1014.8 |
| 20260505162524 | 76 | 142 | 9.0 | 16.0 | 0.00 | 0.00 | 0.00 | 49 | 1014.6 |
| 20260505162020 | 75 | 75 | 3.0 | 11.0 | 0.00 | 0.00 | 0.00 | 48 | 1014.6 |
| 20260505161544 | 75 | 148 | 3.0 | 9.0 | 0.00 | 0.00 | 0.00 | 50 | 1014.6 |
| 20260505161024 | 75 | 145 | 4.0 | 10.0 | 0.00 | 0.00 | 0.00 | 52 | 1014.6 |
| 20260505160523 | 75 | 222 | 4.0 | 17.0 | 0.00 | 0.00 | 0.00 | 51 | 1014.6 |
| 20260505153045 | 73 | 169 | 6.0 | 13.0 | 0.00 | 0.00 | 0.00 | 55 | 1015.0 |
| 20260505152521 | 72 | 97 | 3.0 | 11.0 | 0.00 | 0.00 | 0.00 | 56 | 1014.9 |
| 20260505152029 | 72 | 111 | 7.0 | 11.0 | 0.00 | 0.00 | 0.00 | 56 | 1015.1 |
| 20260505151544 | 72 | 171 | 3.0 | 10.0 | 0.00 | 0.00 | 0.00 | 57 | 1015.0 |
| 20260505151024 | 71 | 107 | 5.0 | 10.0 | 0.00 | 0.00 | 0.00 | 57 | 1015.1 |
| 20260505150522 | 71 | 131 | 4.0 | 7.0 | 0.00 | 0.00 | 0.00 | 58 | 1015.2 |
| 20260505140521 | 65 | 179 | 3.0 | 6.0 | 0.00 | 0.00 | 0.00 | 66 | 1015.1 |
| 20260505125023 | 54 | 171 | 1.0 | 2.0 | 0.00 | 0.00 | 0.00 | 88 | 1014.9 |
| 20260505124537 | 54 | 146 | 0.0 | 2.0 | 0.00 | 0.00 | 0.00 | 88 | 1014.9 |
| 20260505124023 | 53 | 94 | 0.0 | 2.0 | 0.00 | 0.00 | 0.00 | 88 | 1014.7 |
| 20260505123524 | 53 | 114 | 1.0 | 2.0 | 0.00 | 0.00 | 0.00 | 89 | 1014.5 |
| 20260505123056 | 53 | 99 | 0.0 | 2.0 | 0.00 | 0.00 | 0.00 | 89 | 1014.4 |
| 20260505122524 | 52 | 0 | 0.0 | 2.0 | 0.00 | 0.00 | 0.00 | 89 | 1014.5 |
| 20260505122024 | 52 | 98 | 1.0 | 2.0 | 0.00 | 0.00 | 0.00 | 89 | 1014.3 |
| 20260505121543 | 51 | 83 | 1.0 | 2.0 | 0.00 | 0.00 | 0.00 | 89 | 1014.3 |
| 20260505121021 | 51 | 351 | 0.0 | 2.0 | 0.00 | 0.00 | 0.00 | 89 | 1014.4 |
| 20260505120521 | 51 | 351 | 0.0 | 0.0 | 0.00 | 0.00 | 0.00 | 89 | 1014.3 |
| 20260505120052 | 50 | 0 | 0.0 | 0.0 | 0.00 | 0.00 | 0.00 | 89 | 1014.2 |
| 20260505115523 | 50 | 0 | 0.0 | 0.0 | 0.00 | 0.00 | 0.00 | 89 | 1014.2 |
| 20260505115024 | 50 | 0 | 0.0 | 0.0 | 0.00 | 0.00 | 0.00 | 89 | 1014.2 |
| 20260505114541 | 49 | 0 | 0.0 | 0.0 | 0.00 | 0.00 | 0.00 | 89 | 1014.3 |
| 20260505114024 | 49 | 0 | 0.0 | 2.0 | 0.00 | 0.00 | 0.00 | 88 | 1014.2 |
| 20260505113523 | 49 | 0 | 0.0 | 2.0 | 0.00 | 0.00 | 0.00 | 88 | 1014.1 |
| 20260505113037 | 49 | 0 | 0.0 | 2.0 | 0.00 | 0.00 | 0.00 | 88 | 1013.9 |
| 20260505112527 | 49 | 0 | 0.0 | 0.0 | 0.00 | 0.00 | 0.00 | 88 | 1013.9 |
| 20260505112024 | 49 | 0 | 0.0 | 0.0 | 0.00 | 0.00 | 0.00 | 88 | 1013.8 |
| 20260505111538 | 49 | 0 | 0.0 | 0.0 | 0.00 | 0.00 | 0.00 | 88 | 1013.8 |
| 20260505111024 | 49 | 0 | 0.0 | 2.0 | 0.00 | 0.00 | 0.00 | 88 | 1013.7 |
| 20260505110524 | 49 | 0 | 0.0 | 2.0 | 0.00 | 0.00 | 0.00 | 88 | 1013.6 |
| 20260505102023 | 49 | 0 | 0.0 | 2.0 | 0.00 | 0.00 | 0.00 | 86 | 1013.1 |
| 20260505101538 | 50 | 0 | 0.0 | 2.0 | 0.00 | 0.00 | 0.00 | 86 | 1013.2 |
| 20260505101023 | 50 | 322 | 0.0 | 3.0 | 0.00 | 0.00 | 0.00 | 86 | 1013.1 |
| 20260505100524 | 50 | 280 | 1.0 | 3.0 | 0.00 | 0.00 | 0.00 | 86 | 1013.0 |
| 20260505100038 | 50 | 106 | 0.0 | 2.0 | 0.00 | 0.00 | 0.00 | 85 | 1012.9 |
| 20260505095524 | 50 | 139 | 0.0 | 2.0 | 0.00 | 0.00 | 0.00 | 85 | 1012.9 |
| 20260505095024 | 50 | 67 | 0.0 | 2.0 | 0.00 | 0.00 | 0.00 | 85 | 1013.0 |
| 20260505094537 | 50 | 67 | 0.0 | 2.0 | 0.00 | 0.00 | 0.00 | 85 | 1012.8 |
| 20260505094024 | 50 | 0 | 0.0 | 1.0 | 0.00 | 0.00 | 0.00 | 84 | 1012.8 |
| 20260505093523 | 51 | 67 | 0.0 | 1.0 | 0.00 | 0.00 | 0.00 | 84 | 1012.9 |
| 20260505093046 | 51 | 67 | 0.0 | 2.0 | 0.00 | 0.00 | 0.00 | 82 | 1013.0 |
| 20260505092525 | 51 | 0 | 0.0 | 2.0 | 0.00 | 0.00 | 0.00 | 82 | 1013.1 |
| 20260505092025 | 51 | 0 | 0.0 | 1.0 | 0.00 | 0.00 | 0.00 | 82 | 1013.1 |
| 20260505091551 | 51 | 0 | 0.0 | 2.0 | 0.00 | 0.00 | 0.00 | 81 | 1013.0 |
| 20260505091023 | 52 | 36 | 0.0 | 2.0 | 0.00 | 0.00 | 0.00 | 81 | 1013.0 |
| 20260505090524 | 52 | 0 | 0.0 | 2.0 | 0.00 | 0.00 | 0.00 | 81 | 1013.0 |
| 20260505090045 | 52 | 0 | 0.0 | 2.0 | 0.00 | 0.00 | 0.00 | 81 | 1012.9 |
| 20260505085524 | 52 | 0 | 0.0 | 2.0 | 0.00 | 0.00 | 0.00 | 81 | 1013.0 |
| 20260505085024 | 53 | 0 | 0.0 | 1.0 | 0.00 | 0.00 | 0.00 | 81 | 1013.0 |
| 20260505084555 | 53 | 0 | 0.0 | 2.0 | 0.00 | 0.00 | 0.00 | 81 | 1012.9 |
| 20260505084023 | 53 | 0 | 0.0 | 2.0 | 0.00 | 0.00 | 0.00 | 81 | 1013.0 |
| 20260505083529 | 53 | 0 | 0.0 | 2.0 | 0.00 | 0.00 | 0.00 | 81 | 1013.0 |
| 20260505083058 | 53 | 107 | 1.0 | 2.0 | 0.00 | 0.00 | 0.00 | 81 | 1013.1 |
| 20260505082520 | 53 | 156 | 0.0 | 2.0 | 0.00 | 0.00 | 0.00 | 81 | 1013.2 |
| 20260505082022 | 53 | 167 | 1.0 | 3.0 | 0.00 | 0.00 | 0.00 | 82 | 1013.1 |
| 20260505081552 | 53 | 185 | 1.0 | 3.0 | 0.00 | 0.00 | 0.00 | 82 | 1013.2 |
| 20260505081023 | 53 | 119 | 2.0 | 3.0 | 0.00 | 0.00 | 0.00 | 82 | 1013.3 |
| 20260505080522 | 53 | 117 | 2.0 | 3.0 | 0.00 | 0.00 | 0.00 | 82 | 1013.2 |
| 20260505080045 | 53 | 110 | 1.0 | 3.0 | 0.00 | 0.00 | 0.00 | 82 | 1013.4 |
| 20260505075523 | 53 | 112 | 1.0 | 3.0 | 0.00 | 0.00 | 0.00 | 82 | 1013.4 |
| 20260505075024 | 53 | 104 | 1.0 | 3.0 | 0.00 | 0.00 | 0.00 | 82 | 1013.4 |
| 20260505074543 | 53 | 119 | 2.0 | 3.0 | 0.00 | 0.00 | 0.00 | 82 | 1013.3 |
| 20260505074024 | 53 | 146 | 1.0 | 2.0 | 0.00 | 0.00 | 0.00 | 82 | 1013.3 |
| 20260505073520 | 53 | 150 | 1.0 | 2.0 | 0.00 | 0.00 | 0.00 | 82 | 1013.3 |
| 20260505073051 | 53 | 252 | 0.0 | 3.0 | 0.00 | 0.00 | 0.00 | 82 | 1013.3 |
| 20260505072522 | 53 | 153 | 0.0 | 3.0 | 0.00 | 0.00 | 0.00 | 82 | 1013.3 |
| 20260505072020 | 53 | 114 | 1.0 | 3.0 | 0.00 | 0.00 | 0.00 | 82 | 1013.4 |
| 20260505071547 | 53 | 169 | 0.0 | 3.0 | 0.00 | 0.00 | 0.00 | 82 | 1013.4 |
| 20260505071024 | 53 | 115 | 1.0 | 2.0 | 0.00 | 0.00 | 0.00 | 82 | 1013.4 |
| 20260505070528 | 53 | 145 | 1.0 | 2.0 | 0.00 | 0.00 | 0.00 | 82 | 1013.4 |
| 20260505070044 | 53 | 96 | 0.0 | 2.0 | 0.00 | 0.00 | 0.00 | 82 | 1013.4 |
| 20260505065523 | 53 | 84 | 1.0 | 2.0 | 0.00 | 0.00 | 0.00 | 82 | 1013.4 |
| 20260505065022 | 53 | 144 | 1.0 | 3.0 | 0.00 | 0.00 | 0.00 | 81 | 1013.4 |
| 20260505064537 | 53 | 148 | 1.0 | 3.0 | 0.00 | 0.00 | 0.00 | 81 | 1013.4 |
| 20260505064024 | 54 | 143 | 1.0 | 3.0 | 0.00 | 0.00 | 0.00 | 81 | 1013.5 |
| 20260505063521 | 54 | 128 | 1.0 | 2.0 | 0.00 | 0.00 | 0.00 | 80 | 1013.6 |
| 20260505063041 | 54 | 145 | 0.0 | 2.0 | 0.00 | 0.00 | 0.00 | 79 | 1013.7 |
| 20260505062521 | 54 | 168 | 0.0 | 2.0 | 0.00 | 0.00 | 0.00 | 78 | 1013.7 |
| 20260505062021 | 54 | 181 | 0.0 | 2.0 | 0.00 | 0.00 | 0.00 | 78 | 1013.8 |
| 20260505061541 | 54 | 0 | 0.0 | 2.0 | 0.00 | 0.00 | 0.00 | 77 | 1013.7 |
| 20260505061021 | 55 | 0 | 0.0 | 2.0 | 0.00 | 0.00 | 0.00 | 77 | 1013.7 |
| 20260505060521 | 55 | 0 | 0.0 | 2.0 | 0.00 | 0.00 | 0.00 | 77 | 1013.7 |
| 20260505060055 | 55 | 0 | 0.0 | 2.0 | 0.00 | 0.00 | 0.00 | 77 | 1013.7 |
| 20260505055521 | 55 | 0 | 0.0 | 2.0 | 0.00 | 0.00 | 0.00 | 77 | 1013.8 |
| 20260505055024 | 55 | 135 | 0.0 | 2.0 | 0.00 | 0.00 | 0.00 | 76 | 1013.8 |
| 20260505054543 | 56 | 0 | 0.0 | 2.0 | 0.00 | 0.00 | 0.00 | 76 | 1013.8 |
| 20260505054025 | 56 | 0 | 0.0 | 3.0 | 0.00 | 0.00 | 0.00 | 76 | 1013.8 |
| 20260505053525 | 56 | 0 | 0.0 | 3.0 | 0.00 | 0.00 | 0.00 | 76 | 1013.8 |
| 20260505053041 | 56 | 132 | 2.0 | 4.0 | 0.00 | 0.00 | 0.00 | 76 | 1013.8 |
| 20260505052523 | 56 | 131 | 2.0 | 4.0 | 0.00 | 0.00 | 0.00 | 76 | 1013.8 |
| 20260505052024 | 56 | 134 | 3.0 | 4.0 | 0.00 | 0.00 | 0.00 | 75 | 1013.6 |
| 20260505051540 | 56 | 107 | 2.0 | 4.0 | 0.00 | 0.00 | 0.00 | 75 | 1013.6 |
| 20260505051024 | 56 | 142 | 2.0 | 4.0 | 0.00 | 0.00 | 0.00 | 76 | 1013.5 |
| 20260505050524 | 56 | 115 | 1.0 | 4.0 | 0.00 | 0.00 | 0.00 | 76 | 1013.5 |
| 20260505041551 | 57 | 142 | 1.0 | 3.0 | 0.00 | 0.00 | 0.00 | 74 | 1013.6 |
| 20260505041024 | 58 | 132 | 2.0 | 3.0 | 0.00 | 0.00 | 0.00 | 74 | 1013.6 |
| 20260505040530 | 58 | 129 | 1.0 | 2.0 | 0.00 | 0.00 | 0.00 | 74 | 1013.6 |
| 20260505040036 | 58 | 132 | 1.0 | 2.0 | 0.00 | 0.00 | 0.00 | 73 | 1013.6 |
| 20260505035525 | 58 | 112 | 1.0 | 2.0 | 0.00 | 0.00 | 0.00 | 73 | 1013.6 |
| 20260505035023 | 58 | 116 | 1.0 | 2.0 | 0.00 | 0.00 | 0.00 | 73 | 1013.7 |
| 20260505034544 | 58 | 127 | 1.0 | 2.0 | 0.00 | 0.00 | 0.00 | 73 | 1013.7 |
| 20260505034024 | 58 | 109 | 0.0 | 2.0 | 0.00 | 0.00 | 0.00 | 73 | 1013.8 |
| 20260505033521 | 58 | 160 | 0.0 | 2.0 | 0.00 | 0.00 | 0.00 | 73 | 1013.7 |
| 20260505033041 | 58 | 166 | 0.0 | 2.0 | 0.00 | 0.00 | 0.00 | 73 | 1013.7 |
| 20260505032521 | 58 | 0 | 0.0 | 2.0 | 0.00 | 0.00 | 0.00 | 73 | 1013.8 |
| 20260505032023 | 58 | 151 | 0.0 | 2.0 | 0.00 | 0.00 | 0.00 | 72 | 1013.7 |
| 20260505031540 | 59 | 173 | 0.0 | 2.0 | 0.00 | 0.00 | 0.00 | 71 | 1013.6 |
| 20260505031024 | 59 | 0 | 0.0 | 2.0 | 0.00 | 0.00 | 0.00 | 72 | 1013.5 |
| 20260505030524 | 59 | 144 | 1.0 | 2.0 | 0.00 | 0.00 | 0.00 | 71 | 1013.5 |
| 20260505030108 | 60 | 109 | 1.0 | 2.0 | 0.00 | 0.00 | 0.00 | 71 | 1013.5 |
| 20260505025526 | 60 | 120 | 1.0 | 2.0 | 0.00 | 0.00 | 0.00 | 70 | 1013.5 |
| 20260505025022 | 60 | 127 | 0.0 | 2.0 | 0.00 | 0.00 | 0.00 | 70 | 1013.6 |
| 20260505024550 | 61 | 113 | 0.0 | 2.0 | 0.00 | 0.00 | 0.00 | 69 | 1013.5 |
| 20260505024020 | 61 | 113 | 1.0 | 1.0 | 0.00 | 0.00 | 0.00 | 68 | 1013.6 |
| 20260505023523 | 61 | 113 | 1.0 | 1.0 | 0.00 | 0.00 | 0.00 | 67 | 1013.6 |
| 20260505023037 | 62 | 113 | 0.0 | 2.0 | 0.00 | 0.00 | 0.00 | 66 | 1013.7 |
| 20260505022523 | 62 | 113 | 0.0 | 2.0 | 0.00 | 0.00 | 0.00 | 66 | 1013.6 |
| 20260505022021 | 62 | 0 | 0.0 | 2.0 | 0.00 | 0.00 | 0.00 | 67 | 1013.6 |
| 20260505021544 | 63 | 113 | 1.0 | 2.0 | 0.00 | 0.00 | 0.00 | 66 | 1013.5 |
| 20260505021023 | 64 | 113 | 1.0 | 2.0 | 0.00 | 0.00 | 0.00 | 64 | 1013.6 |
| 20260505020521 | 64 | 113 | 0.0 | 2.0 | 0.00 | 0.00 | 0.00 | 62 | 1013.6 |
| 20260505020042 | 64 | 0 | 0.0 | 2.0 | 0.00 | 0.00 | 0.00 | 61 | 1013.4 |
| 20260505015524 | 65 | 113 | 0.0 | 1.0 | 0.00 | 0.00 | 0.00 | 60 | 1013.4 |
| 20260505015024 | 65 | 111 | 0.0 | 1.0 | 0.00 | 0.00 | 0.00 | 59 | 1013.4 |
| 20260505014602 | 66 | 111 | 0.0 | 1.0 | 0.00 | 0.00 | 0.00 | 58 | 1013.4 |
| 20260505014024 | 66 | 122 | 1.0 | 1.0 | 0.00 | 0.00 | 0.00 | 57 | 1013.3 |
| 20260505013523 | 66 | 115 | 0.0 | 1.0 | 0.00 | 0.00 | 0.00 | 56 | 1013.2 |
| 20260505013047 | 66 | 114 | 1.0 | 1.0 | 0.00 | 0.00 | 0.00 | 55 | 1013.2 |
| 20260505012523 | 66 | 109 | 0.0 | 2.0 | 0.00 | 0.00 | 0.00 | 55 | 1013.2 |
| 20260505012024 | 67 | 107 | 0.0 | 2.0 | 0.00 | 0.00 | 0.00 | 53 | 1013.2 |
| 20260505011542 | 67 | 206 | 0.0 | 2.0 | 0.00 | 0.00 | 0.00 | 52 | 1013.1 |
| 20260505011025 | 67 | 230 | 0.0 | 2.0 | 0.00 | 0.00 | 0.00 | 51 | 1013.0 |
| 20260505010522 | 68 | 189 | 0.0 | 3.0 | 0.00 | 0.00 | 0.00 | 51 | 1013.1 |
| 20260505010054 | 68 | 179 | 0.0 | 3.0 | 0.00 | 0.00 | 0.00 | 52 | 1012.9 |
| 20260505005525 | 69 | 166 | 1.0 | 3.0 | 0.00 | 0.00 | 0.00 | 51 | 1012.8 |
| 20260505005023 | 69 | 121 | 1.0 | 2.0 | 0.00 | 0.00 | 0.00 | 51 | 1012.8 |
| 20260505004549 | 69 | 162 | 0.0 | 2.0 | 0.00 | 0.00 | 0.00 | 51 | 1012.8 |
| 20260505004021 | 70 | 0 | 0.0 | 2.0 | 0.00 | 0.00 | 0.00 | 50 | 1012.7 |
| 20260505003523 | 71 | 148 | 1.0 | 3.0 | 0.00 | 0.00 | 0.00 | 48 | 1012.7 |
| 20260505003053 | 71 | 140 | 1.0 | 4.0 | 0.00 | 0.00 | 0.00 | 48 | 1012.7 |
| 20260505002524 | 72 | 150 | 1.0 | 5.0 | 0.00 | 0.00 | 0.00 | 47 | 1012.7 |
| 20260505002024 | 72 | 126 | 2.0 | 6.0 | 0.00 | 0.00 | 0.00 | 46 | 1012.8 |
| 20260505001541 | 73 | 110 | 3.0 | 6.0 | 0.00 | 0.00 | 0.00 | 45 | 1012.8 |
| 20260505001023 | 73 | 158 | 2.0 | 5.0 | 0.00 | 0.00 | 0.00 | 45 | 1012.7 |
| 20260505000522 | 73 | 149 | 3.0 | 5.0 | 0.00 | 0.00 | 0.00 | 44 | 1012.7 |
| 20260505000037 | 73 | 163 | 3.0 | 8.0 | 0.00 | 0.00 | 0.00 | 44 | 1012.8 |
| 20260504235523 | 74 | 119 | 3.0 | 8.0 | 0.00 | 0.00 | 0.00 | 43 | 1012.8 |
| 20260504235023 | 74 | 95 | 4.0 | 7.0 | 0.00 | 0.00 | 0.00 | 43 | 1012.7 |
| 20260504234545 | 74 | 174 | 3.0 | 11.0 | 0.00 | 0.00 | 0.00 | 42 | 1012.8 |
| 20260504234022 | 74 | 144 | 5.0 | 11.0 | 0.00 | 0.00 | 0.00 | 41 | 1012.7 |
| 20260504233523 | 75 | 184 | 3.0 | 12.0 | 0.00 | 0.00 | 0.00 | 41 | 1012.7 |
| 20260504233042 | 75 | 168 | 2.0 | 12.0 | 0.00 | 0.00 | 0.00 | 41 | 1012.7 |
| 20260504232527 | 75 | 180 | 4.0 | 12.0 | 0.00 | 0.00 | 0.00 | 40 | 1012.8 |
| 20260504232023 | 75 | 214 | 6.0 | 12.0 | 0.00 | 0.00 | 0.00 | 40 | 1012.9 |
| 20260504231541 | 76 | 134 | 5.0 | 12.0 | 0.00 | 0.00 | 0.00 | 40 | 1012.9 |
| 20260504231022 | 76 | 140 | 4.0 | 11.0 | 0.00 | 0.00 | 0.00 | 40 | 1012.9 |
| 20260504230524 | 76 | 160 | 6.0 | 11.0 | 0.00 | 0.00 | 0.00 | 40 | 1012.8 |
| 20260504230037 | 76 | 97 | 4.0 | 11.0 | 0.00 | 0.00 | 0.00 | 40 | 1012.8 |
| 20260504225523 | 76 | 200 | 4.0 | 13.0 | 0.00 | 0.00 | 0.00 | 39 | 1012.8 |
| 20260504225024 | 77 | 138 | 7.0 | 14.0 | 0.00 | 0.00 | 0.00 | 39 | 1012.9 |
| 20260504224546 | 77 | 119 | 4.0 | 14.0 | 0.00 | 0.00 | 0.00 | 41 | 1012.9 |
| 20260504224022 | 77 | 158 | 6.0 | 11.0 | 0.00 | 0.00 | 0.00 | 40 | 1012.9 |
| 20260504223522 | 77 | 135 | 6.0 | 11.0 | 0.00 | 0.00 | 0.00 | 41 | 1012.8 |
| 20260504223056 | 77 | 120 | 5.0 | 12.0 | 0.00 | 0.00 | 0.00 | 42 | 1012.8 |
| 20260504222523 | 78 | 152 | 5.0 | 12.0 | 0.00 | 0.00 | 0.00 | 42 | 1012.7 |
| 20260504222023 | 78 | 90 | 5.0 | 12.0 | 0.00 | 0.00 | 0.00 | 42 | 1012.9 |
| 20260504221541 | 78 | 137 | 5.0 | 15.0 | 0.00 | 0.00 | 0.00 | 42 | 1012.8 |
| 20260504221022 | 78 | 97 | 5.0 | 15.0 | 0.00 | 0.00 | 0.00 | 42 | 1012.8 |
| 20260504220523 | 78 | 152 | 6.0 | 15.0 | 0.00 | 0.00 | 0.00 | 42 | 1012.7 |
| 20260504220037 | 78 | 148 | 7.0 | 14.0 | 0.00 | 0.00 | 0.00 | 41 | 1012.8 |
| 20260504215524 | 78 | 126 | 7.0 | 17.0 | 0.00 | 0.00 | 0.00 | 42 | 1012.7 |
| 20260504215026 | 78 | 135 | 7.0 | 17.0 | 0.00 | 0.00 | 0.00 | 42 | 1012.6 |
| 20260504214538 | 78 | 149 | 8.0 | 15.0 | 0.00 | 0.00 | 0.00 | 42 | 1012.5 |
| 20260504214027 | 78 | 177 | 6.0 | 14.0 | 0.00 | 0.00 | 0.00 | 42 | 1012.6 |
| 20260504213523 | 78 | 169 | 5.0 | 14.0 | 0.00 | 0.00 | 0.00 | 43 | 1012.5 |
| 20260504213043 | 78 | 116 | 3.0 | 10.0 | 0.00 | 0.00 | 0.00 | 44 | 1012.5 |
| 20260504212521 | 78 | 138 | 5.0 | 9.0 | 0.00 | 0.00 | 0.00 | 44 | 1012.6 |
| 20260504212024 | 78 | 167 | 4.0 | 9.0 | 0.00 | 0.00 | 0.00 | 44 | 1012.7 |
| 20260504211611 | 78 | 148 | 3.0 | 10.0 | 0.00 | 0.00 | 0.00 | 46 | 1012.7 |
| 20260504211020 | 78 | 117 | 7.0 | 10.0 | 0.00 | 0.00 | 0.00 | 44 | 1012.6 |
| 20260504210524 | 78 | 108 | 3.0 | 10.0 | 0.00 | 0.00 | 0.00 | 44 | 1012.7 |
| 20260504210046 | 78 | 283 | 3.0 | 10.0 | 0.00 | 0.00 | 0.00 | 43 | 1012.8 |
| 20260504205524 | 79 | 128 | 2.0 | 9.0 | 0.00 | 0.00 | 0.00 | 45 | 1012.8 |
| 20260504205100 | 79 | 221 | 3.0 | 11.0 | 0.00 | 0.00 | 0.00 | 44 | 1012.9 |